ETH323 HAAB-FAOR

Flight info

Callsign ETH323
Flight time 4h 48m
Altitude 36000
Route SHALA2A SHALA UM308 LOTAS UM441 LOSIN UM315 USUBI UR409 VMV UP312 GWV UZ11 NESAG UZ7 OKPIT OKPIT4B
Aircraft A359/H-SDE2E3GHIJ3J4J5LM1ORWXY/LB1D1

Departure

Time 2026-05-05 16:53
Airport Addis Ababa Bole International Airport (HAAB)

Arrival

Time 2026-05-05 21:42
Airport O.R. Tambo International Airport (FAOR)
Time Latitude Longitude Altitude Speed Heading
2026-05-05 16:23 8.98170 38.79465 7624 ft 0 kts 343°
2026-05-05 16:41 8.98149 38.79472 7621 ft 4 kts 340°
2026-05-05 16:41 8.98126 38.79481 7625 ft 3 kts 329°
2026-05-05 16:41 8.98114 38.79490 7625 ft 2 kts 307°
2026-05-05 16:41 8.98109 38.79500 7626 ft 2 kts 280°
2026-05-05 16:42 8.98108 38.79511 7627 ft 2 kts 262°
2026-05-05 16:42 8.98110 38.79522 7626 ft 2 kts 256°
2026-05-05 16:42 8.98113 38.79533 7622 ft 2 kts 253°
2026-05-05 16:42 8.98113 38.79535 7621 ft 0 kts 253°
2026-05-05 16:47 8.98113 38.79533 7622 ft 2 kts 253°
2026-05-05 16:47 8.98100 38.79492 7620 ft 10 kts 252°
2026-05-05 16:47 8.98080 38.79427 7619 ft 10 kts 252°
2026-05-05 16:47 8.98060 38.79361 7619 ft 11 kts 253°
2026-05-05 16:48 8.98035 38.79276 7622 ft 13 kts 253°
2026-05-05 16:48 8.98009 38.79189 7620 ft 13 kts 252°
2026-05-05 16:48 8.97983 38.79104 7620 ft 13 kts 253°
2026-05-05 16:48 8.97957 38.79019 7620 ft 13 kts 253°
2026-05-05 16:49 8.97926 38.78916 7621 ft 16 kts 253°
2026-05-05 16:49 8.97893 38.78808 7621 ft 16 kts 253°
2026-05-05 16:49 8.97828 38.78750 7622 ft 13 kts 183°
2026-05-05 16:49 8.97744 38.78768 7622 ft 12 kts 163°
2026-05-05 16:50 8.97668 38.78791 7623 ft 11 kts 163°
2026-05-05 16:50 8.97600 38.78808 7624 ft 11 kts 181°
2026-05-05 16:50 8.97544 38.78735 7626 ft 16 kts 251°
2026-05-05 16:50 8.97511 38.78630 7626 ft 16 kts 253°
2026-05-05 16:51 8.97478 38.78523 7626 ft 16 kts 253°
2026-05-05 16:51 8.97449 38.78419 7626 ft 15 kts 254°
2026-05-05 16:51 8.97419 38.78321 7628 ft 14 kts 245°
2026-05-05 16:51 8.97341 38.78299 7626 ft 13 kts 147°
2026-05-05 16:52 8.97260 38.78360 7622 ft 15 kts 138°
2026-05-05 16:52 8.97255 38.78434 7622 ft 10 kts 76°
2026-05-05 16:52 8.97273 38.78499 7626 ft 15 kts 73°
2026-05-05 16:52 8.97357 38.78785 7623 ft 75 kts 73°
2026-05-05 16:53 8.97565 38.79497 7619 ft 135 kts 74°
2026-05-05 16:53 8.97887 38.80575 7734 ft 176 kts 74°
2026-05-05 16:53 8.98233 38.81717 8399 ft 165 kts 73°
2026-05-05 16:53 8.98592 38.82841 9077 ft 171 kts 73°
2026-05-05 16:54 8.98949 38.83971 9927 ft 163 kts 72°
2026-05-05 16:54 8.99216 38.85046 10444 ft 158 kts 80°
2026-05-05 16:54 8.99120 38.86181 10875 ft 173 kts 106°
2026-05-05 16:54 8.98364 38.87169 11352 ft 189 kts 142°
2026-05-05 16:55 8.97044 38.87387 11787 ft 209 kts 191°
2026-05-05 16:55 8.95691 38.86689 12185 ft 226 kts 209°
2026-05-05 16:55 8.94312 38.85872 12782 ft 237 kts 208°
2026-05-05 16:55 8.92800 38.85011 13133 ft 261 kts 208°
2026-05-05 16:56 8.91144 38.84066 13457 ft 287 kts 209°
2026-05-05 16:56 8.89353 38.83069 13973 ft 295 kts 204°
2026-05-05 16:56 8.87374 38.82524 14555 ft 297 kts 188°
2026-05-05 16:56 8.85326 38.82159 15130 ft 301 kts 189°
2026-05-05 16:57 8.83266 38.81707 15732 ft 305 kts 192°
2026-05-05 16:57 8.81201 38.81157 16314 ft 309 kts 194°
2026-05-05 16:57 8.79130 38.80536 16931 ft 312 kts 195°
2026-05-05 16:57 8.77049 38.79874 17550 ft 315 kts 196°
2026-05-05 16:58 8.74962 38.79189 18186 ft 316 kts 197°
2026-05-05 16:58 8.72874 38.78487 18749 ft 316 kts 197°
2026-05-05 16:58 8.70783 38.77776 19307 ft 317 kts 197°
2026-05-05 16:58 8.68691 38.77069 19879 ft 316 kts 197°
2026-05-05 16:59 8.66610 38.76360 20461 ft 315 kts 197°
2026-05-05 16:59 8.64538 38.75658 21049 ft 313 kts 197°
2026-05-05 16:59 8.62464 38.74959 21525 ft 315 kts 197°
2026-05-05 16:59 8.60380 38.74255 22028 ft 317 kts 197°
2026-05-05 17:00 8.58314 38.73556 22526 ft 318 kts 198°
2026-05-05 17:00 8.56214 38.72846 23032 ft 318 kts 198°
2026-05-05 17:00 8.54115 38.72137 23541 ft 317 kts 198°
2026-05-05 17:00 8.52005 38.71422 23912 ft 320 kts 198°
2026-05-05 17:01 8.49888 38.70707 24250 ft 322 kts 198°
2026-05-05 17:01 8.47750 38.69986 24575 ft 325 kts 198°
2026-05-05 17:01 8.45619 38.69266 24901 ft 328 kts 198°
2026-05-05 17:01 8.43446 38.68532 25239 ft 331 kts 198°
2026-05-05 17:02 8.41251 38.67793 25593 ft 333 kts 198°
2026-05-05 17:02 8.39041 38.67047 25934 ft 336 kts 198°
2026-05-05 17:02 8.36814 38.66294 26291 ft 338 kts 198°
2026-05-05 17:02 8.34577 38.65538 26652 ft 340 kts 198°
2026-05-05 17:03 8.32329 38.64780 27007 ft 342 kts 198°
2026-05-05 17:03 8.30070 38.64017 27366 ft 343 kts 198°
2026-05-05 17:03 8.27804 38.63252 27736 ft 344 kts 198°
2026-05-05 17:03 8.25532 38.62486 28106 ft 345 kts 198°
2026-05-05 17:04 8.23255 38.61718 28480 ft 345 kts 198°
2026-05-05 17:04 8.20983 38.60951 28864 ft 344 kts 198°
2026-05-05 17:04 8.18712 38.60185 29250 ft 344 kts 198°
2026-05-05 17:04 8.16473 38.59429 29632 ft 342 kts 198°
2026-05-05 17:05 8.14214 38.58667 29968 ft 342 kts 198°
2026-05-05 17:05 8.11948 38.57904 30211 ft 344 kts 198°
2026-05-05 17:05 8.09673 38.57137 30440 ft 346 kts 198°
2026-05-05 17:05 8.07387 38.56367 30658 ft 347 kts 198°
2026-05-05 17:06 8.05090 38.55594 30889 ft 348 kts 198°
2026-05-05 17:06 8.02792 38.54819 31131 ft 349 kts 198°
2026-05-05 17:06 8.00484 38.54041 31343 ft 350 kts 198°
2026-05-05 17:06 7.98172 38.53262 31576 ft 350 kts 198°
2026-05-05 17:07 7.95862 38.52484 31820 ft 350 kts 198°
2026-05-05 17:07 7.93541 38.51703 31997 ft 352 kts 198°
2026-05-05 17:07 7.91209 38.50919 32137 ft 355 kts 198°
2026-05-05 17:07 7.88849 38.50125 32268 ft 359 kts 198°
2026-05-05 17:08 7.86496 38.49333 32387 ft 363 kts 198°
2026-05-05 17:08 7.84059 38.48511 32522 ft 367 kts 198°
2026-05-05 17:08 7.81628 38.47693 32637 ft 371 kts 198°
2026-05-05 17:08 7.79169 38.46865 32781 ft 375 kts 198°
2026-05-05 17:09 7.76714 38.46039 32893 ft 379 kts 198°
2026-05-05 17:09 7.74198 38.45193 33014 ft 383 kts 198°
2026-05-05 17:09 7.71650 38.44336 33157 ft 387 kts 198°
2026-05-05 17:09 7.69078 38.43470 33273 ft 391 kts 198°
2026-05-05 17:10 7.66478 38.42596 33411 ft 395 kts 198°
2026-05-05 17:10 7.63855 38.41714 33543 ft 400 kts 198°
2026-05-05 17:10 7.61197 38.40821 33678 ft 404 kts 198°
2026-05-05 17:10 7.58514 38.39918 33812 ft 409 kts 198°
2026-05-05 17:11 7.55828 38.39015 33949 ft 413 kts 198°
2026-05-05 17:11 7.53085 38.38093 34062 ft 418 kts 198°
2026-05-05 17:11 7.50312 38.37161 34191 ft 423 kts 198°
2026-05-05 17:11 7.47507 38.36219 34293 ft 427 kts 198°
2026-05-05 17:12 7.44650 38.35329 34412 ft 431 kts 195°
2026-05-05 17:12 7.41737 38.34517 34536 ft 436 kts 194°
2026-05-05 17:12 7.38787 38.33742 34646 ft 440 kts 194°
2026-05-05 17:12 7.35802 38.32978 34765 ft 445 kts 193°
2026-05-05 17:13 7.32790 38.32205 34884 ft 449 kts 194°
2026-05-05 17:13 7.29740 38.31408 35007 ft 454 kts 194°
2026-05-05 17:13 7.26677 38.30595 35127 ft 458 kts 194°
2026-05-05 17:13 7.23577 38.29761 35250 ft 462 kts 194°
2026-05-05 17:14 7.20491 38.28925 35361 ft 467 kts 194°
2026-05-05 17:14 7.17337 38.28068 35494 ft 471 kts 194°
2026-05-05 17:14 7.14162 38.27203 35605 ft 475 kts 194°
2026-05-05 17:14 7.10952 38.26330 35730 ft 479 kts 194°
2026-05-05 17:15 7.07722 38.25453 35854 ft 483 kts 194°
2026-05-05 17:15 7.04462 38.24568 35967 ft 486 kts 194°
2026-05-05 17:15 6.97971 38.22806 35995 ft 481 kts 195°
2026-05-05 17:16 6.91503 38.21052 35996 ft 480 kts 195°
2026-05-05 17:16 6.85090 38.19313 35992 ft 481 kts 195°
2026-05-05 17:17 6.78627 38.17562 35986 ft 481 kts 195°
2026-05-05 17:17 6.72168 38.15812 35983 ft 481 kts 195°
2026-05-05 17:18 6.65700 38.14059 35981 ft 481 kts 194°
2026-05-05 17:18 6.59225 38.12306 35973 ft 481 kts 195°
2026-05-05 17:19 6.52757 38.10555 35974 ft 481 kts 195°
2026-05-05 17:19 6.46335 38.08814 35976 ft 481 kts 195°
2026-05-05 17:20 6.39878 38.07048 35970 ft 480 kts 195°
2026-05-05 17:20 6.33421 38.05283 35980 ft 481 kts 195°
2026-05-05 17:21 6.26962 38.03522 35980 ft 481 kts 195°
2026-05-05 17:22 6.17268 38.00881 35985 ft 481 kts 195°
2026-05-05 17:22 6.10813 37.99124 35990 ft 480 kts 195°
2026-05-05 17:23 6.04404 37.97379 35991 ft 480 kts 195°
2026-05-05 17:23 5.97949 37.95624 35987 ft 481 kts 195°
2026-05-05 17:24 5.91451 37.93858 35991 ft 485 kts 195°
2026-05-05 17:24 5.84932 37.92081 35998 ft 486 kts 195°
2026-05-05 17:25 5.78403 37.90304 35995 ft 486 kts 195°
2026-05-05 17:25 5.71868 37.88526 35995 ft 487 kts 195°
2026-05-05 17:26 5.65322 37.86748 35995 ft 488 kts 195°
2026-05-05 17:26 5.58765 37.84965 35996 ft 488 kts 195°
2026-05-05 17:27 5.52205 37.83185 35994 ft 487 kts 195°
2026-05-05 17:27 5.45699 37.81417 35991 ft 487 kts 195°
2026-05-05 17:28 5.39154 37.79638 35995 ft 487 kts 195°
2026-05-05 17:28 5.32612 37.77861 35988 ft 486 kts 195°
2026-05-05 17:29 5.26085 37.76089 35983 ft 486 kts 195°
2026-05-05 17:29 5.19555 37.74316 35986 ft 485 kts 195°
2026-05-05 17:30 5.13034 37.72546 35981 ft 485 kts 195°
2026-05-05 17:30 5.06521 37.70779 35975 ft 485 kts 195°
2026-05-05 17:31 5.00007 37.69012 35979 ft 485 kts 195°
2026-05-05 17:31 4.94589 37.67543 35967 ft 485 kts 195°
2026-05-05 17:32 4.88075 37.65777 35973 ft 484 kts 195°
2026-05-05 17:32 4.81598 37.64020 35973 ft 484 kts 195°
2026-05-05 17:33 4.75080 37.62253 35971 ft 484 kts 195°
2026-05-05 17:33 4.68574 37.60490 35971 ft 484 kts 195°
2026-05-05 17:34 4.62073 37.58728 35970 ft 484 kts 195°
2026-05-05 17:34 4.55562 37.56965 35961 ft 484 kts 195°
2026-05-05 17:35 4.49103 37.55215 35961 ft 484 kts 195°
2026-05-05 17:35 4.42604 37.53456 35956 ft 484 kts 195°
2026-05-05 17:36 4.36100 37.51695 35952 ft 484 kts 195°
2026-05-05 17:36 4.29591 37.49933 35948 ft 484 kts 195°
2026-05-05 17:37 4.23068 37.48168 35943 ft 485 kts 195°
2026-05-05 17:37 4.16583 37.46413 35937 ft 486 kts 195°
2026-05-05 17:38 4.10049 37.44646 35930 ft 486 kts 195°
2026-05-05 17:38 4.03508 37.42876 35930 ft 487 kts 195°
2026-05-05 17:39 3.96962 37.41094 35919 ft 487 kts 195°
2026-05-05 17:39 3.90493 37.39201 35916 ft 487 kts 197°
2026-05-05 17:40 3.84008 37.37240 35908 ft 486 kts 197°
2026-05-05 17:40 3.77519 37.35295 35907 ft 486 kts 197°
2026-05-05 17:41 3.71024 37.33370 35903 ft 487 kts 196°
2026-05-05 17:41 3.64524 37.31451 35897 ft 486 kts 196°
2026-05-05 17:42 3.58072 37.29548 35895 ft 486 kts 196°
2026-05-05 17:42 3.51581 37.27632 35888 ft 486 kts 197°
2026-05-05 17:43 3.45093 37.25716 35890 ft 486 kts 197°
2026-05-05 17:43 3.38601 37.23799 35889 ft 486 kts 197°
2026-05-05 17:44 3.32104 37.21881 35882 ft 486 kts 196°
2026-05-05 17:44 3.25652 37.19977 35883 ft 486 kts 197°
2026-05-05 17:45 3.19154 37.18059 35877 ft 486 kts 196°
2026-05-05 17:45 3.12673 37.16147 35887 ft 486 kts 196°
2026-05-05 17:46 3.06192 37.14235 35888 ft 486 kts 196°
2026-05-05 17:46 2.99740 37.12332 35890 ft 486 kts 196°
2026-05-05 17:47 2.93255 37.10419 35891 ft 485 kts 196°
2026-05-05 17:47 2.86777 37.08509 35894 ft 485 kts 196°
2026-05-05 17:48 2.80297 37.06598 35898 ft 486 kts 196°
2026-05-05 17:48 2.73806 37.04684 35907 ft 486 kts 196°
2026-05-05 17:49 2.67322 37.02773 35904 ft 486 kts 196°
2026-05-05 17:49 2.60833 37.00861 35905 ft 486 kts 196°
2026-05-05 17:50 2.54352 36.98950 35914 ft 485 kts 196°
2026-05-05 17:50 2.47867 36.97039 35916 ft 485 kts 196°
2026-05-05 17:51 2.41421 36.95139 35922 ft 485 kts 196°
2026-05-05 17:51 2.34941 36.93230 35923 ft 486 kts 196°
2026-05-05 17:52 2.28451 36.91318 35927 ft 486 kts 196°
2026-05-05 17:52 2.21971 36.89410 35933 ft 485 kts 196°
2026-05-05 17:53 2.15486 36.87499 35941 ft 485 kts 196°
2026-05-05 17:53 2.09045 36.85603 35941 ft 485 kts 196°
2026-05-05 17:54 2.02553 36.83691 35948 ft 486 kts 196°
2026-05-05 17:54 1.96066 36.81780 35951 ft 486 kts 196°
2026-05-05 17:55 1.89569 36.79867 35950 ft 486 kts 196°
2026-05-05 17:55 1.83118 36.77967 35955 ft 486 kts 196°
2026-05-05 17:56 1.76627 36.76056 35954 ft 486 kts 196°
2026-05-05 17:56 1.70129 36.74144 35960 ft 486 kts 196°
2026-05-05 17:57 1.63627 36.72230 35959 ft 486 kts 196°
2026-05-05 17:57 1.57138 36.70318 35960 ft 486 kts 196°
2026-05-05 17:58 1.50687 36.68419 35966 ft 486 kts 196°
2026-05-05 17:58 1.44200 36.66510 35975 ft 486 kts 196°
2026-05-05 17:59 1.37699 36.64597 35980 ft 486 kts 196°
2026-05-05 17:59 1.31217 36.62690 35988 ft 485 kts 196°
2026-05-05 18:00 1.24737 36.60784 35991 ft 485 kts 196°
2026-05-05 18:00 1.18251 36.58875 36002 ft 486 kts 196°
2026-05-05 18:01 1.11798 36.56976 36004 ft 486 kts 196°
2026-05-05 18:01 1.05307 36.55066 36021 ft 486 kts 196°
2026-05-05 18:02 0.98730 36.53420 36028 ft 486 kts 188°
2026-05-05 18:02 0.92061 36.52598 36022 ft 486 kts 185°
2026-05-05 18:03 0.85332 36.51939 36027 ft 486 kts 185°
2026-05-05 18:03 0.78585 36.51298 36040 ft 486 kts 185°
2026-05-05 18:04 0.71839 36.50640 36049 ft 487 kts 185°
2026-05-05 18:04 0.65086 36.49968 36058 ft 487 kts 185°
2026-05-05 18:05 0.58341 36.49294 36060 ft 486 kts 185°
2026-05-05 18:05 0.51646 36.48626 36066 ft 486 kts 185°
2026-05-05 18:06 0.44928 36.47956 36069 ft 485 kts 185°
2026-05-05 18:06 0.38213 36.47287 36081 ft 484 kts 185°
2026-05-05 18:07 0.31499 36.46617 36091 ft 484 kts 185°
2026-05-05 18:07 0.24846 36.45954 36102 ft 483 kts 185°
2026-05-05 18:08 0.18143 36.45285 36111 ft 483 kts 185°
2026-05-05 18:08 0.11455 36.44618 36127 ft 483 kts 185°
2026-05-05 18:09 0.04771 36.43952 36131 ft 483 kts 185°
2026-05-05 18:09 -0.01917 36.43286 36143 ft 482 kts 185°
2026-05-05 18:10 -0.08601 36.42619 36149 ft 482 kts 186°
2026-05-05 18:10 -0.15284 36.41952 36160 ft 483 kts 186°
2026-05-05 18:11 -0.21943 36.41288 36163 ft 483 kts 185°
2026-05-05 18:11 -0.28627 36.40622 36173 ft 483 kts 186°
2026-05-05 18:12 -0.35324 36.39954 36173 ft 483 kts 186°
2026-05-05 18:12 -0.42018 36.39287 36184 ft 483 kts 186°
2026-05-05 18:13 -0.48715 36.38619 36178 ft 483 kts 186°
2026-05-05 18:13 -0.55410 36.37951 36178 ft 484 kts 186°
2026-05-05 18:14 -0.62076 36.37291 36176 ft 484 kts 186°
2026-05-05 18:14 -0.68776 36.36639 36188 ft 484 kts 186°
2026-05-05 18:15 -0.75485 36.35989 36178 ft 484 kts 186°
2026-05-05 18:15 -0.82204 36.35336 36179 ft 484 kts 186°
2026-05-05 18:16 -0.88917 36.34676 36181 ft 484 kts 186°
2026-05-05 18:16 -0.95629 36.33986 36177 ft 484 kts 186°
2026-05-05 18:17 -1.02334 36.33293 36179 ft 484 kts 186°
2026-05-05 18:17 -1.09040 36.32606 36164 ft 484 kts 186°
2026-05-05 18:18 -1.15713 36.31930 36157 ft 484 kts 186°
2026-05-05 18:18 -1.22423 36.31262 36153 ft 484 kts 186°
2026-05-05 18:19 -1.29136 36.30596 36140 ft 484 kts 186°
2026-05-05 18:19 -1.35834 36.29930 36139 ft 484 kts 186°
2026-05-05 18:20 -1.42535 36.29266 36129 ft 484 kts 186°
2026-05-05 18:20 -1.49207 36.28598 36122 ft 484 kts 186°
2026-05-05 18:21 -1.55914 36.27931 36108 ft 484 kts 186°
2026-05-05 18:21 -1.61494 36.27373 36104 ft 484 kts 186°
2026-05-05 18:22 -1.68209 36.26701 36100 ft 485 kts 186°
2026-05-05 18:22 -1.74945 36.26028 36096 ft 485 kts 186°
2026-05-05 18:23 -1.81627 36.25361 36084 ft 485 kts 186°
2026-05-05 18:23 -1.88359 36.24690 36087 ft 485 kts 186°
2026-05-05 18:24 -1.95077 36.24019 36082 ft 485 kts 186°
2026-05-05 18:24 -2.01795 36.23349 36084 ft 485 kts 186°
2026-05-05 18:25 -2.08513 36.22679 36088 ft 485 kts 186°
2026-05-05 18:25 -2.15237 36.22008 36082 ft 485 kts 186°
2026-05-05 18:26 -2.21950 36.21338 36081 ft 485 kts 186°
2026-05-05 18:26 -2.28669 36.20671 36084 ft 485 kts 186°
2026-05-05 18:27 -2.35341 36.20000 36092 ft 485 kts 186°
2026-05-05 18:27 -2.42059 36.19326 36095 ft 485 kts 186°
2026-05-05 18:28 -2.52145 36.18315 36098 ft 485 kts 186°
2026-05-05 18:28 -2.58871 36.17642 36106 ft 486 kts 185°
2026-05-05 18:29 -2.65602 36.16968 36121 ft 486 kts 185°
2026-05-05 18:29 -2.72330 36.16294 36127 ft 486 kts 185°
2026-05-05 18:30 -2.79069 36.15623 36126 ft 486 kts 185°
2026-05-05 18:30 -2.85763 36.14958 36138 ft 486 kts 185°
2026-05-05 18:31 -2.92489 36.14289 36145 ft 485 kts 185°
2026-05-05 18:31 -2.99204 36.13621 36156 ft 484 kts 185°
2026-05-05 18:32 -3.05917 36.12953 36165 ft 484 kts 185°
2026-05-05 18:32 -3.12632 36.12286 36147 ft 485 kts 185°
2026-05-05 18:33 -3.19312 36.11551 36160 ft 485 kts 186°
2026-05-05 18:33 -3.26001 36.10700 36161 ft 485 kts 187°
2026-05-05 18:34 -3.32686 36.09834 36166 ft 484 kts 187°
2026-05-05 18:34 -3.39385 36.08990 36158 ft 484 kts 186°
2026-05-05 18:35 -3.46042 36.08163 36169 ft 485 kts 186°
2026-05-05 18:35 -3.52743 36.07334 36158 ft 484 kts 186°
2026-05-05 18:36 -3.59434 36.06506 36160 ft 484 kts 186°
2026-05-05 18:36 -3.66134 36.05676 36151 ft 484 kts 186°
2026-05-05 18:37 -3.72814 36.04851 36151 ft 484 kts 186°
2026-05-05 18:37 -3.79457 36.04035 36158 ft 484 kts 186°
2026-05-05 18:38 -3.86142 36.03215 36153 ft 484 kts 186°
2026-05-05 18:38 -3.92822 36.02395 36158 ft 484 kts 186°
2026-05-05 18:39 -3.99518 36.01572 36149 ft 484 kts 186°
2026-05-05 18:39 -4.06205 36.00749 36149 ft 484 kts 186°
2026-05-05 18:40 -4.12885 35.99927 36152 ft 484 kts 186°
2026-05-05 18:40 -4.19569 35.99105 36154 ft 484 kts 186°
2026-05-05 18:41 -4.26213 35.98288 36152 ft 484 kts 186°
2026-05-05 18:41 -4.32892 35.97466 36150 ft 484 kts 186°
2026-05-05 18:42 -4.39581 35.96643 36157 ft 484 kts 186°
2026-05-05 18:42 -4.46266 35.95821 36149 ft 484 kts 186°
2026-05-05 18:43 -4.52951 35.94993 36167 ft 483 kts 186°
2026-05-05 18:43 -4.59587 35.94165 36155 ft 483 kts 186°
2026-05-05 18:44 -4.66266 35.93331 36154 ft 483 kts 186°
2026-05-05 18:44 -4.72946 35.92498 36162 ft 484 kts 186°
2026-05-05 18:45 -4.79640 35.91662 36157 ft 484 kts 186°
2026-05-05 18:45 -4.86337 35.90826 36152 ft 484 kts 186°
2026-05-05 18:46 -4.92983 35.89999 36154 ft 484 kts 186°
2026-05-05 18:46 -4.99673 35.89165 36149 ft 484 kts 186°
2026-05-05 18:47 -5.06356 35.88330 36145 ft 484 kts 186°
2026-05-05 18:47 -5.13028 35.87497 36145 ft 483 kts 186°
2026-05-05 18:48 -5.19709 35.86662 36142 ft 483 kts 186°
2026-05-05 18:48 -5.26399 35.85827 36141 ft 483 kts 186°
2026-05-05 18:49 -5.33048 35.84996 36133 ft 484 kts 186°
2026-05-05 18:49 -5.39729 35.84162 36116 ft 484 kts 186°
2026-05-05 18:50 -5.46414 35.83337 36127 ft 484 kts 186°
2026-05-05 18:50 -5.53103 35.82514 36128 ft 484 kts 186°
2026-05-05 18:51 -5.59791 35.81690 36127 ft 484 kts 186°
2026-05-05 18:51 -5.66481 35.80864 36119 ft 484 kts 186°
2026-05-05 18:52 -5.73114 35.80048 36121 ft 483 kts 186°
2026-05-05 18:52 -5.79796 35.79226 36114 ft 483 kts 186°
2026-05-05 18:53 -5.86473 35.78406 36114 ft 483 kts 186°
2026-05-05 18:53 -5.93146 35.77583 36110 ft 482 kts 186°
2026-05-05 18:54 -5.99770 35.76764 36104 ft 482 kts 186°
2026-05-05 18:54 -6.06466 35.75933 36102 ft 482 kts 186°
2026-05-05 18:55 -6.13074 35.75120 36102 ft 481 kts 185°
2026-05-05 18:55 -6.19676 35.73950 36103 ft 482 kts 191°
2026-05-05 18:56 -6.26210 35.72392 36101 ft 482 kts 192°
2026-05-05 18:56 -6.32719 35.70752 36101 ft 482 kts 193°
2026-05-05 18:57 -6.39188 35.69122 36096 ft 482 kts 193°
2026-05-05 18:57 -6.45691 35.67494 36093 ft 481 kts 193°
2026-05-05 18:58 -6.52197 35.65874 36079 ft 481 kts 193°
2026-05-05 18:58 -6.58696 35.64258 36076 ft 481 kts 193°
2026-05-05 18:59 -6.65197 35.62639 36071 ft 481 kts 193°
2026-05-05 18:59 -6.71694 35.61019 36068 ft 481 kts 193°
2026-05-05 19:00 -6.78186 35.59402 36061 ft 481 kts 193°
2026-05-05 19:00 -6.84693 35.57780 36058 ft 481 kts 193°
2026-05-05 19:01 -6.91146 35.56171 36053 ft 481 kts 193°
2026-05-05 19:01 -6.97644 35.54551 36052 ft 481 kts 193°
2026-05-05 19:02 -7.04141 35.52929 36056 ft 481 kts 193°
2026-05-05 19:02 -7.10636 35.51310 36048 ft 480 kts 193°
2026-05-05 19:03 -7.17131 35.49690 36047 ft 481 kts 193°
2026-05-05 19:03 -7.23621 35.48070 36045 ft 481 kts 193°
2026-05-05 19:04 -7.30117 35.46446 36041 ft 481 kts 193°
2026-05-05 19:04 -7.36618 35.44824 36042 ft 481 kts 193°
2026-05-05 19:05 -7.43072 35.43213 36044 ft 481 kts 193°
2026-05-05 19:05 -7.49574 35.41588 36049 ft 481 kts 193°
2026-05-05 19:06 -7.56085 35.39958 36054 ft 481 kts 193°
2026-05-05 19:06 -7.62580 35.38332 36062 ft 481 kts 193°
2026-05-05 19:07 -7.67984 35.36980 36067 ft 481 kts 193°
2026-05-05 19:07 -7.74484 35.35354 36074 ft 481 kts 193°
2026-05-05 19:08 -7.80983 35.33727 36087 ft 481 kts 193°
2026-05-05 19:08 -7.87484 35.32100 36096 ft 481 kts 193°
2026-05-05 19:09 -7.93934 35.30484 36102 ft 481 kts 193°
2026-05-05 19:09 -8.00429 35.28857 36111 ft 481 kts 193°
2026-05-05 19:10 -8.06919 35.27230 36118 ft 480 kts 193°
2026-05-05 19:10 -8.13406 35.25604 36124 ft 480 kts 194°
2026-05-05 19:11 -8.19890 35.23977 36128 ft 480 kts 194°
2026-05-05 19:11 -8.26371 35.22351 36130 ft 479 kts 194°
2026-05-05 19:12 -8.32845 35.20726 36130 ft 479 kts 194°
2026-05-05 19:12 -8.39273 35.19111 36125 ft 479 kts 194°
2026-05-05 19:13 -8.45745 35.17486 36127 ft 479 kts 193°
2026-05-05 19:13 -8.52206 35.15862 36123 ft 479 kts 193°
2026-05-05 19:14 -8.58666 35.14239 36120 ft 478 kts 193°
2026-05-05 19:14 -8.65131 35.12616 36119 ft 478 kts 193°
2026-05-05 19:15 -8.71589 35.10993 36118 ft 478 kts 193°
2026-05-05 19:15 -8.78057 35.09366 36112 ft 478 kts 193°
2026-05-05 19:16 -8.84518 35.07741 36115 ft 478 kts 193°
2026-05-05 19:16 -8.90924 35.06130 36111 ft 478 kts 193°
2026-05-05 19:17 -8.97378 35.04507 36114 ft 478 kts 193°
2026-05-05 19:17 -9.03829 35.02884 36116 ft 478 kts 193°
2026-05-05 19:18 -9.10285 35.01258 36122 ft 478 kts 193°
2026-05-05 19:18 -9.16740 34.99632 36125 ft 478 kts 193°
2026-05-05 19:19 -9.23192 34.98006 36126 ft 478 kts 193°
2026-05-05 19:19 -9.29644 34.96379 36132 ft 477 kts 193°
2026-05-05 19:20 -9.36062 34.94754 36134 ft 477 kts 194°
2026-05-05 19:20 -9.42503 34.93081 36137 ft 477 kts 194°
2026-05-05 19:21 -9.48939 34.91404 36137 ft 477 kts 194°
2026-05-05 19:21 -9.55369 34.89736 36133 ft 477 kts 194°
2026-05-05 19:22 -9.61806 34.88070 36133 ft 477 kts 194°
2026-05-05 19:22 -9.68243 34.86403 36128 ft 477 kts 194°
2026-05-05 19:23 -9.74629 34.84748 36121 ft 477 kts 194°
2026-05-05 19:23 -9.81058 34.83081 36114 ft 476 kts 194°
2026-05-05 19:24 -9.87482 34.81416 36107 ft 477 kts 194°
2026-05-05 19:24 -9.93918 34.79748 36096 ft 477 kts 194°
2026-05-05 19:25 -10.00349 34.78079 36087 ft 477 kts 194°
2026-05-05 19:25 -10.06787 34.76407 36076 ft 477 kts 194°
2026-05-05 19:26 -10.13225 34.74735 36064 ft 477 kts 194°
2026-05-05 19:26 -10.19632 34.73071 36057 ft 478 kts 194°
2026-05-05 19:27 -10.26093 34.71392 36046 ft 478 kts 194°
2026-05-05 19:27 -10.32546 34.69714 36039 ft 479 kts 194°
2026-05-05 19:28 -10.38997 34.68035 36032 ft 479 kts 194°
2026-05-05 19:28 -10.45457 34.66354 36023 ft 479 kts 194°
2026-05-05 19:29 -10.51917 34.64674 36025 ft 479 kts 194°
2026-05-05 19:29 -10.58376 34.63001 36020 ft 479 kts 194°
2026-05-05 19:30 -10.64829 34.61434 36017 ft 480 kts 193°
2026-05-05 19:30 -10.71336 34.59891 36017 ft 480 kts 194°
2026-05-05 19:31 -10.77842 34.58336 36018 ft 480 kts 194°
2026-05-05 19:31 -10.84357 34.56766 36016 ft 481 kts 194°
2026-05-05 19:32 -10.90879 34.55193 36015 ft 481 kts 194°
2026-05-05 19:32 -10.97352 34.53627 36013 ft 481 kts 194°
2026-05-05 19:33 -11.03869 34.52050 36011 ft 481 kts 194°
2026-05-05 19:33 -11.10399 34.50470 36012 ft 481 kts 194°
2026-05-05 19:34 -11.16918 34.48892 36009 ft 481 kts 194°
2026-05-05 19:35 -11.26609 34.46375 36005 ft 481 kts 195°
2026-05-05 19:35 -11.33090 34.44593 36005 ft 481 kts 196°
2026-05-05 19:36 -11.39570 34.42820 36006 ft 481 kts 196°
2026-05-05 19:36 -11.46064 34.41134 36007 ft 482 kts 195°
2026-05-05 19:37 -11.52576 34.39507 36009 ft 482 kts 195°
2026-05-05 19:37 -11.59093 34.37876 36006 ft 482 kts 195°
2026-05-05 19:38 -11.65568 34.36241 36005 ft 482 kts 195°
2026-05-05 19:38 -11.72104 34.34586 36001 ft 482 kts 195°
2026-05-05 19:39 -11.78631 34.32930 36003 ft 483 kts 195°
2026-05-05 19:39 -11.85151 34.31276 36001 ft 483 kts 195°
2026-05-05 19:40 -11.91630 34.29633 36003 ft 483 kts 195°
2026-05-05 19:40 -11.98161 34.27975 36002 ft 483 kts 195°
2026-05-05 19:41 -12.04696 34.26315 36004 ft 484 kts 195°
2026-05-05 19:41 -12.11234 34.24654 36002 ft 484 kts 195°
2026-05-05 19:42 -12.17773 34.22992 36004 ft 484 kts 195°
2026-05-05 19:42 -12.24313 34.21328 36007 ft 484 kts 195°
2026-05-05 19:43 -12.30809 34.19675 36009 ft 484 kts 195°
2026-05-05 19:43 -12.37355 34.18009 36010 ft 484 kts 195°
2026-05-05 19:44 -12.43895 34.16343 36017 ft 484 kts 195°
2026-05-05 19:44 -12.50435 34.14676 36018 ft 484 kts 195°
2026-05-05 19:45 -12.56978 34.13008 36021 ft 484 kts 195°
2026-05-05 19:45 -12.63517 34.11339 36022 ft 484 kts 195°
2026-05-05 19:46 -12.70066 34.09668 36026 ft 484 kts 195°
2026-05-05 19:46 -12.76565 34.08007 36028 ft 484 kts 195°
2026-05-05 19:47 -12.83110 34.06334 36034 ft 484 kts 196°
2026-05-05 19:47 -12.89662 34.04658 36041 ft 485 kts 196°
2026-05-05 19:48 -12.96214 34.02983 36046 ft 485 kts 196°
2026-05-05 19:48 -13.02726 34.01316 36046 ft 485 kts 196°
2026-05-05 19:49 -13.09271 33.99609 36060 ft 485 kts 196°
2026-05-05 19:49 -13.15810 33.97892 36061 ft 485 kts 196°
2026-05-05 19:50 -13.22306 33.96189 36046 ft 485 kts 196°
2026-05-05 19:50 -13.28851 33.94478 36065 ft 484 kts 196°
2026-05-05 19:51 -13.35393 33.92767 36061 ft 484 kts 196°
2026-05-05 19:51 -13.41928 33.91056 36072 ft 484 kts 196°
2026-05-05 19:52 -13.48468 33.89344 36077 ft 484 kts 196°
2026-05-05 19:52 -13.54952 33.87645 36065 ft 484 kts 196°
2026-05-05 19:53 -13.61477 33.85935 36080 ft 484 kts 197°
2026-05-05 19:53 -13.68008 33.84223 36072 ft 484 kts 197°
2026-05-05 19:54 -13.74531 33.82510 36073 ft 483 kts 197°
2026-05-05 19:54 -13.81019 33.80671 36089 ft 481 kts 202°
2026-05-05 19:55 -13.87173 33.78089 36082 ft 480 kts 205°
2026-05-05 19:55 -13.93287 33.75326 36087 ft 479 kts 206°
2026-05-05 19:56 -13.98346 33.72997 36075 ft 479 kts 206°
2026-05-05 19:56 -14.04434 33.70201 36074 ft 479 kts 206°
2026-05-05 19:57 -14.10526 33.67423 36078 ft 479 kts 206°
2026-05-05 19:57 -14.16625 33.64649 36086 ft 478 kts 206°
2026-05-05 19:58 -14.22717 33.61878 36088 ft 478 kts 206°
2026-05-05 19:58 -14.28768 33.59123 36083 ft 478 kts 206°
2026-05-05 19:59 -14.34858 33.56348 36090 ft 477 kts 206°
2026-05-05 19:59 -14.40935 33.53577 36075 ft 477 kts 206°
2026-05-05 20:00 -14.47013 33.50804 36067 ft 477 kts 206°
2026-05-05 20:00 -14.53047 33.48050 36064 ft 477 kts 207°
2026-05-05 20:01 -14.59120 33.45280 36065 ft 476 kts 206°
2026-05-05 20:01 -14.65199 33.42518 36049 ft 476 kts 206°
2026-05-05 20:02 -14.71269 33.39759 36041 ft 476 kts 207°
2026-05-05 20:02 -14.77330 33.37002 36042 ft 476 kts 206°
2026-05-05 20:03 -14.83353 33.34260 36025 ft 476 kts 207°
2026-05-05 20:03 -14.89446 33.31485 36012 ft 476 kts 207°
2026-05-05 20:04 -14.95470 33.28739 36000 ft 475 kts 207°
2026-05-05 20:04 -15.01520 33.25978 35998 ft 475 kts 207°
2026-05-05 20:05 -15.07544 33.23129 35982 ft 475 kts 208°
2026-05-05 20:05 -15.13530 33.20236 35978 ft 474 kts 208°
2026-05-05 20:06 -15.19489 33.17367 35969 ft 475 kts 208°
2026-05-05 20:06 -15.25478 33.14497 35966 ft 474 kts 208°
2026-05-05 20:07 -15.31475 33.11628 35965 ft 474 kts 208°
2026-05-05 20:07 -15.37469 33.08759 35966 ft 474 kts 208°
2026-05-05 20:08 -15.43471 33.05883 35958 ft 474 kts 208°
2026-05-05 20:08 -15.49454 33.03014 35961 ft 474 kts 208°
2026-05-05 20:09 -15.55440 33.00142 35958 ft 474 kts 208°
2026-05-05 20:09 -15.61416 32.97266 35956 ft 474 kts 208°
2026-05-05 20:10 -15.67339 32.94359 35955 ft 473 kts 208°
2026-05-05 20:10 -15.73298 32.91420 35958 ft 473 kts 208°
2026-05-05 20:11 -15.79254 32.88488 35956 ft 473 kts 208°
2026-05-05 20:11 -15.85160 32.85584 35956 ft 472 kts 208°
2026-05-05 20:12 -15.91102 32.82662 35958 ft 472 kts 208°
2026-05-05 20:12 -15.97041 32.79739 35960 ft 472 kts 208°
2026-05-05 20:13 -16.02989 32.76810 35963 ft 472 kts 208°
2026-05-05 20:13 -16.08925 32.73884 35969 ft 472 kts 208°
2026-05-05 20:14 -16.14820 32.70977 35971 ft 471 kts 208°
2026-05-05 20:14 -16.20751 32.68050 35977 ft 471 kts 208°
2026-05-05 20:15 -16.26674 32.65126 35980 ft 471 kts 208°
2026-05-05 20:15 -16.32600 32.62198 35984 ft 471 kts 208°
2026-05-05 20:16 -16.38513 32.59274 35991 ft 471 kts 209°
2026-05-05 20:16 -16.44435 32.56344 35996 ft 470 kts 209°
2026-05-05 20:17 -16.50350 32.53416 36002 ft 470 kts 209°
2026-05-05 20:17 -16.56260 32.50564 36012 ft 471 kts 208°
2026-05-05 20:18 -16.62243 32.47762 36013 ft 471 kts 208°
2026-05-05 20:18 -16.68231 32.44952 36020 ft 471 kts 208°
2026-05-05 20:19 -16.74203 32.42131 36025 ft 471 kts 208°
2026-05-05 20:19 -16.80179 32.39300 36030 ft 471 kts 208°
2026-05-05 20:20 -16.86153 32.36466 36034 ft 471 kts 208°
2026-05-05 20:20 -16.92099 32.33645 36042 ft 472 kts 208°
2026-05-05 20:21 -16.98074 32.30807 36044 ft 472 kts 208°
2026-05-05 20:21 -17.04056 32.27965 36052 ft 472 kts 208°
2026-05-05 20:22 -17.10035 32.25123 36057 ft 472 kts 208°
2026-05-05 20:22 -17.16023 32.22294 36064 ft 472 kts 208°
2026-05-05 20:23 -17.22012 32.19483 36067 ft 472 kts 208°
2026-05-05 20:23 -17.28016 32.16665 36077 ft 473 kts 208°
2026-05-05 20:24 -17.33976 32.13861 36078 ft 472 kts 208°
2026-05-05 20:24 -17.39970 32.11037 36084 ft 472 kts 208°
2026-05-05 20:25 -17.45968 32.08209 36090 ft 472 kts 208°
2026-05-05 20:25 -17.51962 32.05381 36093 ft 473 kts 208°
2026-05-05 20:26 -17.57976 32.02544 36096 ft 472 kts 208°
2026-05-05 20:26 -17.63939 31.99731 36103 ft 473 kts 208°
2026-05-05 20:27 -17.69942 31.96890 36108 ft 473 kts 208°
2026-05-05 20:27 -17.75946 31.94047 36109 ft 473 kts 208°
2026-05-05 20:28 -17.81943 31.91208 36117 ft 473 kts 208°
2026-05-05 20:28 -17.87946 31.88364 36115 ft 473 kts 208°
2026-05-05 20:29 -17.93912 31.85535 36118 ft 473 kts 208°
2026-05-05 20:29 -17.99921 31.82684 36122 ft 473 kts 208°
2026-05-05 20:30 -18.05922 31.79834 36122 ft 473 kts 208°
2026-05-05 20:30 -18.11929 31.76979 36123 ft 473 kts 208°
2026-05-05 20:31 -18.17893 31.74142 36120 ft 473 kts 208°
2026-05-05 20:31 -18.23888 31.71295 36116 ft 473 kts 208°
2026-05-05 20:32 -18.29904 31.68465 36115 ft 473 kts 208°
2026-05-05 20:32 -18.35918 31.65640 36109 ft 473 kts 208°
2026-05-05 20:33 -18.41925 31.62814 36106 ft 473 kts 208°
2026-05-05 20:33 -18.47938 31.59980 36097 ft 472 kts 208°
2026-05-05 20:34 -18.53901 31.57166 36094 ft 472 kts 208°
2026-05-05 20:34 -18.59909 31.54329 36087 ft 473 kts 208°
2026-05-05 20:35 -18.65907 31.51495 36081 ft 473 kts 208°
2026-05-05 20:35 -18.71921 31.48652 36074 ft 473 kts 208°
2026-05-05 20:36 -18.77930 31.45808 36071 ft 473 kts 208°
2026-05-05 20:36 -18.83900 31.42980 36063 ft 473 kts 208°
2026-05-05 20:37 -18.89904 31.40134 36059 ft 473 kts 208°
2026-05-05 20:37 -18.95907 31.37286 36054 ft 473 kts 208°
2026-05-05 20:38 -19.01925 31.34429 36052 ft 473 kts 208°
2026-05-05 20:38 -19.07929 31.31576 36050 ft 473 kts 208°
2026-05-05 20:39 -19.13950 31.28730 36052 ft 474 kts 208°
2026-05-05 20:39 -19.19978 31.25900 36048 ft 474 kts 208°
2026-05-05 20:40 -19.25980 31.23081 36037 ft 474 kts 208°
2026-05-05 20:40 -19.32014 31.20242 36036 ft 474 kts 208°
2026-05-05 20:41 -19.38039 31.17402 36036 ft 474 kts 208°
2026-05-05 20:41 -19.44025 31.14579 36037 ft 474 kts 208°
2026-05-05 20:42 -19.50050 31.11735 36032 ft 474 kts 208°
2026-05-05 20:42 -19.56073 31.08890 36026 ft 474 kts 208°
2026-05-05 20:43 -19.61090 31.06518 36025 ft 474 kts 208°
2026-05-05 20:43 -19.67105 31.03672 36026 ft 474 kts 208°
2026-05-05 20:44 -19.73132 31.00818 36015 ft 474 kts 208°
2026-05-05 20:44 -19.79145 30.97969 36013 ft 474 kts 208°
2026-05-05 20:45 -19.88174 30.93686 35999 ft 474 kts 209°
2026-05-05 20:45 -19.94198 30.90826 35992 ft 474 kts 209°
2026-05-05 20:46 -20.00185 30.87980 35984 ft 474 kts 209°
2026-05-05 20:46 -20.06127 30.84980 35984 ft 470 kts 214°
2026-05-05 20:47 -20.11770 30.81453 35976 ft 469 kts 216°
2026-05-05 20:47 -20.17341 30.77817 35966 ft 469 kts 217°
2026-05-05 20:48 -20.22894 30.74169 35966 ft 469 kts 217°
2026-05-05 20:48 -20.28428 30.70547 35954 ft 470 kts 217°
2026-05-05 20:49 -20.34002 30.66905 35946 ft 470 kts 217°
2026-05-05 20:49 -20.39578 30.63263 35939 ft 470 kts 217°
2026-05-05 20:50 -20.45157 30.59615 35932 ft 470 kts 217°
2026-05-05 20:50 -20.50705 30.55984 35924 ft 471 kts 217°
2026-05-05 20:51 -20.56293 30.52323 35927 ft 471 kts 217°
2026-05-05 20:51 -20.61879 30.48665 35928 ft 472 kts 217°
2026-05-05 20:52 -20.67473 30.44992 35920 ft 472 kts 217°
2026-05-05 20:52 -20.73069 30.41313 35913 ft 472 kts 218°
2026-05-05 20:53 -20.78620 30.37662 35904 ft 472 kts 218°
2026-05-05 20:53 -20.84218 30.33980 35890 ft 472 kts 218°
2026-05-05 20:54 -20.89812 30.30294 35914 ft 472 kts 218°
2026-05-05 20:54 -20.95413 30.26602 35892 ft 473 kts 218°
2026-05-05 20:55 -21.01016 30.22905 35890 ft 473 kts 218°
2026-05-05 20:55 -21.06622 30.19202 35891 ft 473 kts 218°
2026-05-05 20:56 -21.12190 30.15523 35890 ft 473 kts 218°
2026-05-05 20:56 -21.17802 30.11811 35889 ft 473 kts 218°
2026-05-05 20:57 -21.23406 30.08100 35887 ft 474 kts 218°
2026-05-05 20:57 -21.29013 30.04385 35883 ft 474 kts 218°
2026-05-05 20:58 -21.34597 30.00681 35877 ft 474 kts 219°
2026-05-05 20:58 -21.40202 29.96959 35877 ft 474 kts 219°
2026-05-05 20:59 -21.45809 29.93232 35874 ft 474 kts 219°
2026-05-05 20:59 -21.51416 29.89503 35874 ft 474 kts 219°
2026-05-05 21:00 -21.57014 29.85775 35872 ft 473 kts 219°
2026-05-05 21:00 -21.62615 29.82043 35874 ft 473 kts 219°
2026-05-05 21:01 -21.68210 29.78310 35869 ft 473 kts 219°
2026-05-05 21:01 -21.73804 29.74576 35872 ft 473 kts 219°
2026-05-05 21:02 -21.79402 29.70835 35879 ft 473 kts 219°
2026-05-05 21:02 -21.84988 29.67099 35870 ft 473 kts 219°
2026-05-05 21:03 -21.90543 29.63379 35871 ft 473 kts 219°
2026-05-05 21:03 -21.96124 29.59639 35868 ft 472 kts 219°
2026-05-05 21:04 -22.01714 29.55890 35867 ft 472 kts 220°
2026-05-05 21:04 -22.07296 29.52142 35861 ft 472 kts 220°
2026-05-05 21:05 -22.12870 29.48396 35863 ft 472 kts 220°
2026-05-05 21:05 -22.18421 29.44678 35865 ft 473 kts 219°
2026-05-05 21:06 -22.24319 29.41382 35863 ft 486 kts 208°
2026-05-05 21:06 -22.30978 29.39582 35871 ft 496 kts 199°
2026-05-05 21:07 -22.37781 29.38208 35867 ft 498 kts 198°
2026-05-05 21:07 -22.44609 29.36888 35868 ft 498 kts 198°
2026-05-05 21:08 -22.51429 29.35551 35872 ft 498 kts 198°
2026-05-05 21:08 -22.58202 29.34183 35876 ft 498 kts 198°
2026-05-05 21:09 -22.65023 29.32788 35888 ft 498 kts 199°
2026-05-05 21:09 -22.71843 29.31388 35879 ft 499 kts 199°
2026-05-05 21:10 -22.78674 29.29987 35885 ft 499 kts 199°
2026-05-05 21:10 -22.85457 29.28596 35889 ft 499 kts 199°
2026-05-05 21:11 -22.92295 29.27191 35888 ft 499 kts 199°
2026-05-05 21:11 -22.99133 29.25786 35885 ft 499 kts 199°
2026-05-05 21:12 -23.05961 29.24381 35892 ft 499 kts 199°
2026-05-05 21:12 -23.12789 29.22975 35892 ft 499 kts 199°
2026-05-05 21:13 -23.19584 29.21574 35892 ft 499 kts 199°
2026-05-05 21:13 -23.26416 29.20163 35894 ft 499 kts 199°
2026-05-05 21:14 -23.33246 29.18752 35894 ft 499 kts 199°
2026-05-05 21:14 -23.40085 29.17337 35895 ft 499 kts 199°
2026-05-05 21:15 -23.46913 29.15923 35897 ft 499 kts 199°
2026-05-05 21:15 -23.53743 29.14507 35895 ft 499 kts 199°
2026-05-05 21:16 -23.60527 29.13099 35899 ft 500 kts 199°
2026-05-05 21:16 -23.67359 29.11680 35902 ft 500 kts 199°
2026-05-05 21:17 -23.74206 29.10256 35908 ft 500 kts 199°
2026-05-05 21:17 -23.81050 29.08831 35913 ft 500 kts 199°
2026-05-05 21:18 -23.87886 29.07407 35907 ft 500 kts 199°
2026-05-05 21:18 -23.94729 29.05979 35902 ft 500 kts 199°
2026-05-05 21:19 -24.01538 29.04557 35903 ft 500 kts 199°
2026-05-05 21:19 -24.08378 29.03123 35903 ft 500 kts 199°
2026-05-05 21:20 -24.15227 29.01699 35906 ft 500 kts 199°
2026-05-05 21:20 -24.22078 29.00279 35904 ft 501 kts 199°
2026-05-05 21:21 -24.28928 28.98856 35909 ft 501 kts 199°
2026-05-05 21:21 -24.35741 28.97438 35915 ft 501 kts 199°
2026-05-05 21:22 -24.42595 28.96009 35921 ft 501 kts 199°
2026-05-05 21:22 -24.49453 28.94577 35924 ft 501 kts 199°
2026-05-05 21:23 -24.56301 28.93147 35932 ft 501 kts 199°
2026-05-05 21:23 -24.63141 28.91716 35936 ft 500 kts 198°
2026-05-05 21:24 -24.69942 28.90291 35942 ft 500 kts 198°
2026-05-05 21:24 -24.76783 28.88857 35533 ft 500 kts 198°
2026-05-05 21:25 -24.80211 28.88135 34972 ft 502 kts 198°
2026-05-05 21:25 -24.83666 28.87398 34398 ft 508 kts 198°
2026-05-05 21:25 -24.87146 28.86652 33822 ft 509 kts 198°
2026-05-05 21:25 -24.90622 28.85916 33179 ft 508 kts 197°
2026-05-05 21:26 -24.94043 28.85053 32499 ft 497 kts 206°
2026-05-05 21:26 -24.97160 28.83624 31780 ft 478 kts 212°
2026-05-05 21:26 -25.00142 28.82037 31063 ft 473 kts 213°
2026-05-05 21:26 -25.03070 28.80418 30368 ft 469 kts 214°
2026-05-05 21:27 -25.05965 28.78797 29632 ft 464 kts 214°
2026-05-05 21:27 -25.08832 28.77188 28836 ft 459 kts 214°
2026-05-05 21:27 -25.11630 28.75617 28076 ft 454 kts 214°
2026-05-05 21:27 -25.14430 28.74045 27323 ft 449 kts 214°
2026-05-05 21:28 -25.17204 28.72488 26607 ft 444 kts 214°
2026-05-05 21:28 -25.19939 28.70951 25896 ft 439 kts 214°
2026-05-05 21:28 -25.22643 28.69430 25207 ft 434 kts 214°
2026-05-05 21:28 -25.25319 28.67925 24536 ft 429 kts 214°
2026-05-05 21:29 -25.27965 28.66436 23876 ft 425 kts 214°
2026-05-05 21:29 -25.30583 28.64963 23150 ft 420 kts 214°
2026-05-05 21:29 -25.33183 28.63498 22376 ft 416 kts 214°
2026-05-05 21:29 -25.35755 28.62049 21639 ft 412 kts 214°
2026-05-05 21:30 -25.38293 28.60617 20911 ft 408 kts 214°
2026-05-05 21:30 -25.40816 28.59194 20200 ft 405 kts 214°
2026-05-05 21:30 -25.43317 28.57782 19506 ft 401 kts 214°
2026-05-05 21:30 -25.45791 28.56384 18837 ft 397 kts 214°
2026-05-05 21:31 -25.48214 28.55016 18149 ft 394 kts 214°
2026-05-05 21:31 -25.50645 28.53641 17371 ft 391 kts 214°
2026-05-05 21:31 -25.53055 28.52278 16640 ft 387 kts 214°
2026-05-05 21:31 -25.55440 28.50928 15910 ft 383 kts 214°
2026-05-05 21:32 -25.57806 28.49588 15205 ft 380 kts 214°
2026-05-05 21:32 -25.60147 28.48263 14502 ft 376 kts 214°
2026-05-05 21:32 -25.61684 28.47392 14053 ft 374 kts 214°
2026-05-05 21:32 -25.63989 28.46083 13311 ft 370 kts 214°
2026-05-05 21:33 -25.66259 28.44789 12554 ft 364 kts 214°
2026-05-05 21:33 -25.68469 28.43533 11823 ft 350 kts 213°
2026-05-05 21:33 -25.70597 28.42322 11106 ft 338 kts 213°
2026-05-05 21:33 -25.72655 28.41150 10397 ft 327 kts 213°
2026-05-05 21:34 -25.74654 28.40012 9732 ft 318 kts 213°
2026-05-05 21:34 -25.76595 28.38906 8976 ft 309 kts 212°
2026-05-05 21:34 -25.78470 28.37839 8394 ft 295 kts 212°
2026-05-05 21:34 -25.80248 28.36831 8158 ft 281 kts 212°
2026-05-05 21:35 -25.81965 28.35852 8114 ft 270 kts 212°
2026-05-05 21:35 -25.83597 28.34925 8117 ft 259 kts 212°
2026-05-05 21:35 -25.85153 28.34043 8068 ft 240 kts 213°
2026-05-05 21:35 -25.86574 28.33247 8006 ft 217 kts 212°
2026-05-05 21:36 -25.87832 28.32548 8031 ft 195 kts 213°
2026-05-05 21:36 -25.89018 28.31885 8023 ft 188 kts 213°
2026-05-05 21:36 -25.90181 28.31226 8017 ft 188 kts 214°
2026-05-05 21:36 -25.91363 28.30654 8013 ft 180 kts 207°
2026-05-05 21:37 -25.92533 28.30259 8010 ft 173 kts 203°
2026-05-05 21:37 -25.93667 28.29930 8006 ft 162 kts 202°
2026-05-05 21:37 -25.94723 28.29610 8009 ft 154 kts 204°
2026-05-05 21:37 -25.95750 28.29293 8010 ft 152 kts 205°
2026-05-05 21:38 -25.96772 28.28975 8012 ft 153 kts 204°
2026-05-05 21:38 -25.97804 28.28652 8012 ft 154 kts 205°
2026-05-05 21:38 -25.98836 28.28329 7994 ft 154 kts 204°
2026-05-05 21:38 -25.99874 28.28007 7966 ft 155 kts 204°
2026-05-05 21:39 -26.00906 28.27696 7739 ft 155 kts 203°
2026-05-05 21:39 -26.01930 28.27378 7538 ft 152 kts 204°
2026-05-05 21:39 -26.02942 28.27064 7335 ft 150 kts 204°
2026-05-05 21:39 -26.03945 28.26752 7150 ft 149 kts 204°
2026-05-05 21:40 -26.04941 28.26442 6961 ft 148 kts 203°
2026-05-05 21:40 -26.05930 28.26135 6787 ft 147 kts 202°
2026-05-05 21:40 -26.06917 28.25838 6616 ft 147 kts 201°
2026-05-05 21:40 -26.07906 28.25547 6346 ft 145 kts 201°
2026-05-05 21:41 -26.08867 28.25252 6093 ft 141 kts 201°
2026-05-05 21:41 -26.09816 28.24944 5891 ft 143 kts 200°
2026-05-05 21:41 -26.10767 28.24647 5618 ft 139 kts 198°
2026-05-05 21:41 -26.11638 28.24370 5544 ft 127 kts 198°
2026-05-05 21:42 -26.12391 28.24132 5544 ft 78 kts 195°
2026-05-05 21:42 -26.12751 28.24020 5549 ft 46 kts 196°
2026-05-05 21:42 -26.12985 28.23948 5549 ft 30 kts 195°
2026-05-05 21:42 -26.13162 28.23895 5552 ft 24 kts 195°
2026-05-05 21:43 -26.13197 28.23838 5554 ft 4 kts 293°
2026-05-05 21:43 -26.13176 28.23806 5553 ft 6 kts 311°
2026-05-05 21:43 -26.13145 28.23769 5551 ft 7 kts 313°
2026-05-05 21:43 -26.13113 28.23735 5552 ft 5 kts 327°
2026-05-05 21:44 -26.13077 28.23725 5553 ft 7 kts 357°
2026-05-05 21:44 -26.13020 28.23736 5552 ft 8 kts 13°
2026-05-05 21:44 -26.12959 28.23754 5554 ft 10 kts 15°
2026-05-05 21:44 -26.12904 28.23770 5550 ft 8 kts 14°
2026-05-05 21:45 -26.12853 28.23765 5553 ft 7 kts 323°
2026-05-05 21:45 -26.12834 28.23724 5554 ft 5 kts 281°
2026-05-05 21:45 -26.12829 28.23683 5554 ft 6 kts 277°
2026-05-05 21:45 -26.12823 28.23636 5554 ft 7 kts 277°
2026-05-05 21:46 -26.12819 28.23585 5554 ft 6 kts 266°
2026-05-05 21:46 -26.12816 28.23537 5555 ft 6 kts 279°
2026-05-05 21:46 -26.12824 28.23501 5556 ft 2 kts 222°
2026-05-05 21:46 -26.12828 28.23501 5556 ft 0 kts 203°
2026-05-05 21:47 -26.12835 28.23498 5554 ft 3 kts 197°
2026-05-05 21:47 -26.12859 28.23496 5557 ft 3 kts 186°
2026-05-05 21:47 -26.12885 28.23492 5555 ft 4 kts 186°
2026-05-05 21:47 -26.12898 28.23490 5555 ft 0 kts 186°
2026-05-05 21:48 -26.12904 28.23490 5554 ft 1 kts 186°
2026-05-05 21:48 -26.12905 28.23490 5554 ft 0 kts 186°